Time,TemperatureF,DewpointF,PressureIn,WindDirection,WindDirectionDegrees,WindSpeedMPH,WindSpeedGustMPH,Humidity,HourlyPrecipIn,Conditions,Clouds,dailyrainin,SoftwareType,DateUTC
2013-04-26 00:03:00,36.0,25.0,30.37,WSW,253,3.0,-999.0,63,-99.99,,,-99.99,,2013-04-26 04:03:00,
2013-04-26 00:12:00,36.0,25.0,30.37,WSW,253,3.0,-999.0,63,-99.99,,,-99.99,,2013-04-26 04:12:00,
2013-04-26 00:23:00,36.0,25.0,30.37,WSW,244,6.0,-999.0,63,-99.99,,,-99.99,,2013-04-26 04:23:00,
2013-04-26 00:32:00,36.0,25.0,30.37,SW,227,7.0,-999.0,64,-99.99,,,-99.99,,2013-04-26 04:32:00,
2013-04-26 00:43:00,36.0,25.0,30.37,SW,227,7.0,-999.0,64,-99.99,,,-99.99,,2013-04-26 04:43:00,
2013-04-26 00:52:00,36.0,25.0,30.37,WSW,237,7.0,-999.0,64,-99.99,,,-99.99,,2013-04-26 04:52:00,
2013-04-26 01:02:00,35.0,24.0,30.37,West,259,7.0,-999.0,65,-99.99,,,-99.99,,2013-04-26 05:02:00,
2013-04-26 01:13:00,35.0,24.0,30.37,West,259,7.0,-999.0,65,-99.99,,,-99.99,,2013-04-26 05:13:00,
2013-04-26 01:22:00,35.0,25.0,30.37,WSW,241,6.0,-999.0,66,-99.99,,,-99.99,,2013-04-26 05:22:00,
2013-04-26 01:32:00,35.0,25.0,30.37,WSW,242,7.0,-999.0,67,-99.99,,,-99.99,,2013-04-26 05:32:00,
2013-04-26 01:42:00,35.0,25.0,30.37,WSW,242,7.0,-999.0,67,-99.99,,,-99.99,,2013-04-26 05:42:00,
2013-04-26 01:52:00,35.0,26.0,30.37,SW,228,7.0,-999.0,68,-99.99,,,-99.99,,2013-04-26 05:52:00,
2013-04-26 02:02:00,35.0,26.0,30.37,SW,235,8.0,-999.0,69,-99.99,,,-99.99,,2013-04-26 06:02:00,
2013-04-26 02:12:00,35.0,26.0,30.37,SW,235,8.0,-999.0,69,-99.99,,,-99.99,,2013-04-26 06:12:00,
2013-04-26 02:22:00,34.0,25.0,30.37,SW,233,8.0,-999.0,70,-99.99,,,-99.99,,2013-04-26 06:22:00,
2013-04-26 02:32:00,34.0,26.0,30.36,WSW,247,9.0,-999.0,71,-99.99,,,-99.99,,2013-04-26 06:32:00,
2013-04-26 02:42:00,34.0,26.0,30.36,WSW,247,9.0,-999.0,71,-99.99,,,-99.99,,2013-04-26 06:42:00,
2013-04-26 02:52:00,34.0,26.0,30.36,SW,223,8.0,-999.0,72,-99.99,,,-99.99,,2013-04-26 06:52:00,
2013-04-26 03:02:00,34.0,26.0,30.36,WSW,240,8.0,-999.0,72,-99.99,,,-99.99,,2013-04-26 07:02:00,
2013-04-26 03:11:00,34.0,26.0,30.36,WSW,240,8.0,-999.0,72,-99.99,,,-99.99,,2013-04-26 07:11:00,
2013-04-26 03:22:00,34.0,26.0,30.35,WSW,248,7.0,-999.0,73,-99.99,,,-99.99,,2013-04-26 07:22:00,
2013-04-26 03:32:00,33.0,26.0,30.35,West,280,8.0,-999.0,75,-99.99,,,-99.99,,2013-04-26 07:32:00,
2013-04-26 03:42:00,33.0,26.0,30.35,West,280,8.0,-999.0,75,-99.99,,,-99.99,,2013-04-26 07:42:00,
2013-04-26 03:52:00,33.0,26.0,30.35,West,267,8.0,-999.0,76,-99.99,,,-99.99,,2013-04-26 07:52:00,
2013-04-26 04:03:00,33.0,26.0,30.35,West,264,7.0,-999.0,76,-99.99,,,-99.99,,2013-04-26 08:03:00,
2013-04-26 04:11:00,33.0,26.0,30.35,West,264,7.0,-999.0,76,-99.99,,,-99.99,,2013-04-26 08:11:00,
2013-04-26 04:22:00,33.0,27.0,30.36,SW,225,8.0,-999.0,77,-99.99,,,-99.99,,2013-04-26 08:22:00,
2013-04-26 04:32:00,33.0,27.0,30.36,WSW,258,6.0,-999.0,78,-99.99,,,-99.99,,2013-04-26 08:32:00,
2013-04-26 04:42:00,33.0,27.0,30.36,WSW,258,6.0,-999.0,78,-99.99,,,-99.99,,2013-04-26 08:42:00,
2013-04-26 04:52:00,32.0,26.0,30.35,West,272,7.0,-999.0,79,-99.99,,,-99.99,,2013-04-26 08:52:00,
2013-04-26 05:02:00,32.0,27.0,30.35,WSW,241,7.0,-999.0,80,-99.99,,,-99.99,,2013-04-26 09:02:00,
2013-04-26 05:12:00,32.0,27.0,30.35,WSW,241,7.0,-999.0,80,-99.99,,,-99.99,,2013-04-26 09:12:00,
2013-04-26 05:22:00,32.0,27.0,30.36,WSW,253,5.0,-999.0,81,-99.99,,,-99.99,,2013-04-26 09:22:00,
2013-04-26 05:33:00,32.0,27.0,30.36,WNW,289,6.0,-999.0,82,-99.99,,,-99.99,,2013-04-26 09:33:00,
2013-04-26 05:43:00,32.0,27.0,30.36,WNW,289,6.0,-999.0,82,-99.99,,,-99.99,,2013-04-26 09:43:00,
2013-04-26 05:53:00,31.0,26.0,30.37,WSW,244,6.0,-999.0,82,-99.99,,,-99.99,,2013-04-26 09:53:00,
2013-04-26 06:03:00,32.0,28.0,30.37,SW,234,6.0,-999.0,84,-99.99,,,-99.99,,2013-04-26 10:03:00,
2013-04-26 06:12:00,32.0,28.0,30.37,SW,234,6.0,-999.0,84,-99.99,,,-99.99,,2013-04-26 10:12:00,
2013-04-26 06:23:00,32.0,28.0,30.37,WNW,298,7.0,-999.0,85,-99.99,,,-99.99,,2013-04-26 10:23:00,
2013-04-26 06:33:00,32.0,28.0,30.38,WSW,257,8.0,-999.0,86,-99.99,,,-99.99,,2013-04-26 10:33:00,
2013-04-26 06:42:00,32.0,28.0,30.38,WSW,257,8.0,-999.0,86,-99.99,,,-99.99,,2013-04-26 10:42:00,
2013-04-26 06:52:00,32.0,29.0,30.39,WSW,247,8.0,-999.0,87,-99.99,,,-99.99,,2013-04-26 10:52:00,
2013-04-26 07:02:00,32.0,29.0,30.39,West,259,8.0,-999.0,88,-99.99,,,-99.99,,2013-04-26 11:02:00,
2013-04-26 07:11:00,32.0,29.0,30.39,West,259,8.0,-999.0,88,-99.99,,,-99.99,,2013-04-26 11:11:00,
2013-04-26 07:22:00,33.0,30.0,30.39,WSW,241,8.0,-999.0,88,-99.99,,,-99.99,,2013-04-26 11:22:00,
2013-04-26 07:32:00,33.0,30.0,30.39,WSW,257,8.0,-999.0,88,-99.99,,,-99.99,,2013-04-26 11:32:00,
2013-04-26 07:42:00,33.0,30.0,30.39,WSW,257,8.0,-999.0,88,-99.99,,,-99.99,,2013-04-26 11:42:00,
2013-04-26 07:52:00,33.0,30.0,30.40,SW,234,6.0,-999.0,88,-99.99,,,-99.99,,2013-04-26 11:52:00,
2013-04-26 08:02:00,33.0,30.0,30.41,West,278,5.0,-999.0,87,-99.99,,,-99.99,,2013-04-26 12:02:00,
2013-04-26 08:11:00,33.0,30.0,30.41,West,278,5.0,-999.0,87,-99.99,,,-99.99,,2013-04-26 12:11:00,
2013-04-26 08:21:00,34.0,30.0,30.41,West,279,4.0,-999.0,86,-99.99,,,-99.99,,2013-04-26 12:21:00,
2013-04-26 08:32:00,35.0,31.0,30.41,West,279,3.0,-999.0,85,-99.99,,,-99.99,,2013-04-26 12:32:00,
2013-04-26 08:42:00,35.0,31.0,30.41,West,279,3.0,-999.0,85,-99.99,,,-99.99,,2013-04-26 12:42:00,
2013-04-26 08:52:00,36.0,32.0,30.41,NW,326,3.0,-999.0,84,-99.99,,,-99.99,,2013-04-26 12:52:00,
2013-04-26 09:01:00,37.0,32.0,30.42,WSW,242,3.0,-999.0,82,-99.99,,,-99.99,,2013-04-26 13:01:00,
2013-04-26 09:11:00,37.0,32.0,30.42,WSW,242,3.0,-999.0,82,-99.99,,,-99.99,,2013-04-26 13:11:00,
2013-04-26 09:22:00,37.0,31.0,30.43,West,260,5.0,-999.0,79,-99.99,,,-99.99,,2013-04-26 13:22:00,
2013-04-26 09:32:00,38.0,31.0,30.43,West,277,5.0,-999.0,75,-99.99,,,-99.99,,2013-04-26 13:32:00,
2013-04-26 09:42:00,38.0,31.0,30.43,West,277,5.0,-999.0,75,-99.99,,,-99.99,,2013-04-26 13:42:00,
2013-04-26 09:52:00,38.0,30.0,30.43,West,264,7.0,-999.0,73,-99.99,,,-99.99,,2013-04-26 13:52:00,
2013-04-26 10:02:00,39.0,30.0,30.42,NW,319,5.0,-999.0,71,-99.99,,,-99.99,,2013-04-26 14:02:00,
2013-04-26 10:11:00,39.0,30.0,30.42,NW,319,5.0,-999.0,71,-99.99,,,-99.99,,2013-04-26 14:11:00,
2013-04-26 10:21:00,40.0,31.0,30.42,WSW,240,6.0,-999.0,69,-99.99,,,-99.99,,2013-04-26 14:21:00,
2013-04-26 10:32:00,40.0,30.0,30.42,WSW,251,8.0,-999.0,66,-99.99,,,-99.99,,2013-04-26 14:32:00,
2013-04-26 10:42:00,40.0,30.0,30.42,WSW,251,8.0,-999.0,66,-99.99,,,-99.99,,2013-04-26 14:42:00,
2013-04-26 10:52:00,42.0,30.0,30.43,WSW,246,7.0,-999.0,61,-99.99,,,-99.99,,2013-04-26 14:52:00,
2013-04-26 11:01:00,43.0,29.0,30.43,SW,227,6.0,-999.0,58,-99.99,,,-99.99,,2013-04-26 15:01:00,
2013-04-26 11:12:00,43.0,29.0,30.43,SW,227,6.0,-999.0,58,-99.99,,,-99.99,,2013-04-26 15:12:00,
2013-04-26 11:22:00,43.0,28.0,30.43,WNW,287,6.0,-999.0,56,-99.99,,,-99.99,,2013-04-26 15:22:00,
2013-04-26 11:33:00,45.0,28.0,30.44,SW,236,5.0,-999.0,52,-99.99,,,-99.99,,2013-04-26 15:33:00,
2013-04-26 11:43:00,45.0,28.0,30.44,SW,236,5.0,-999.0,52,-99.99,,,-99.99,,2013-04-26 15:43:00,
2013-04-26 11:53:00,45.0,29.0,30.43,SSW,213,4.0,-999.0,53,-99.99,,,-99.99,,2013-04-26 15:53:00,
2013-04-26 12:03:00,46.0,28.0,30.42,SW,221,4.0,-999.0,49,-99.99,,,-99.99,,2013-04-26 16:03:00,
2013-04-26 12:13:00,46.0,28.0,30.42,SW,221,4.0,-999.0,49,-99.99,,,-99.99,,2013-04-26 16:13:00,
2013-04-26 12:23:00,46.0,27.0,30.42,WSW,250,3.0,-999.0,47,-99.99,,,-99.99,,2013-04-26 16:23:00,
2013-04-26 12:33:00,46.0,28.0,30.42,WNW,293,4.0,-999.0,49,-99.99,,,-99.99,,2013-04-26 16:33:00,
2013-04-26 12:42:00,46.0,28.0,30.42,WNW,293,4.0,-999.0,49,-99.99,,,-99.99,,2013-04-26 16:42:00,
2013-04-26 12:52:00,49.0,25.0,30.43,West,259,6.0,-999.0,38,-99.99,,,-99.99,,2013-04-26 16:52:00,
2013-04-26 13:02:00,50.0,21.0,30.42,SW,223,6.0,-999.0,32,-99.99,,,-99.99,,2013-04-26 17:02:00,
2013-04-26 13:12:00,50.0,21.0,30.42,SW,223,6.0,-999.0,32,-99.99,,,-99.99,,2013-04-26 17:12:00,
2013-04-26 13:22:00,51.0,22.0,30.41,WNW,296,6.0,-999.0,32,-99.99,,,-99.99,,2013-04-26 17:22:00,
2013-04-26 13:32:00,50.0,23.0,30.41,SW,229,5.0,-999.0,34,-99.99,,,-99.99,,2013-04-26 17:32:00,
2013-04-26 13:42:00,50.0,23.0,30.41,SW,229,5.0,-999.0,34,-99.99,,,-99.99,,2013-04-26 17:42:00,
2013-04-26 13:52:00,51.0,22.0,30.41,South,188,6.0,-999.0,32,-99.99,,,-99.99,,2013-04-26 17:52:00,
2013-04-26 14:02:00,53.0,23.0,30.42,SW,222,5.0,-999.0,31,-99.99,,,-99.99,,2013-04-26 18:02:00,
2013-04-26 14:12:00,53.0,23.0,30.42,SW,222,5.0,-999.0,31,-99.99,,,-99.99,,2013-04-26 18:12:00,
2013-04-26 14:22:00,52.0,22.0,30.42,SW,218,7.0,-999.0,31,-99.99,,,-99.99,,2013-04-26 18:22:00,
2013-04-26 14:33:00,53.0,23.0,30.41,SW,217,9.0,-999.0,31,-99.99,,,-99.99,,2013-04-26 18:33:00,
2013-04-26 14:42:00,53.0,23.0,30.41,SW,217,9.0,-999.0,31,-99.99,,,-99.99,,2013-04-26 18:42:00,
2013-04-26 14:52:00,54.0,24.0,30.41,SW,225,7.0,-999.0,31,-99.99,,,-99.99,,2013-04-26 18:52:00,
2013-04-26 15:02:00,54.0,26.0,30.41,WSW,248,9.0,-999.0,33,-99.99,,,-99.99,,2013-04-26 19:02:00,
2013-04-26 15:12:00,54.0,26.0,30.41,WSW,248,9.0,-999.0,33,-99.99,,,-99.99,,2013-04-26 19:12:00,
2013-04-26 15:22:00,53.0,25.0,30.40,WNW,284,7.0,-999.0,33,-99.99,,,-99.99,,2013-04-26 19:22:00,
2013-04-26 15:32:00,53.0,27.0,30.40,SW,225,5.0,-999.0,36,-99.99,,,-99.99,,2013-04-26 19:32:00,
2013-04-26 15:42:00,53.0,27.0,30.40,SW,225,5.0,-999.0,36,-99.99,,,-99.99,,2013-04-26 19:42:00,
2013-04-26 15:52:00,55.0,26.0,30.39,West,263,8.0,-999.0,32,-99.99,,,-99.99,,2013-04-26 19:52:00,
2013-04-26 16:02:00,55.0,26.0,30.38,SW,220,8.0,-999.0,32,-99.99,,,-99.99,,2013-04-26 20:02:00,
2013-04-26 16:11:00,55.0,26.0,30.38,SW,220,8.0,-999.0,32,-99.99,,,-99.99,,2013-04-26 20:11:00,
2013-04-26 16:22:00,55.0,24.0,30.38,West,260,8.0,-999.0,30,-99.99,,,-99.99,,2013-04-26 20:22:00,
2013-04-26 16:32:00,54.0,24.0,30.38,WSW,244,6.0,-999.0,31,-99.99,,,-99.99,,2013-04-26 20:32:00,
2013-04-26 16:42:00,54.0,24.0,30.38,WSW,244,6.0,-999.0,31,-99.99,,,-99.99,,2013-04-26 20:42:00,
2013-04-26 16:52:00,55.0,24.0,30.37,SW,222,4.0,-999.0,30,-99.99,,,-99.99,,2013-04-26 20:52:00,
2013-04-26 17:02:00,53.0,23.0,30.37,West,277,7.0,-999.0,31,-99.99,,,-99.99,,2013-04-26 21:02:00,
2013-04-26 17:11:00,53.0,23.0,30.37,West,277,7.0,-999.0,31,-99.99,,,-99.99,,2013-04-26 21:11:00,
2013-04-26 17:22:00,53.0,24.0,30.36,WSW,254,9.0,-999.0,32,-99.99,,,-99.99,,2013-04-26 21:22:00,
2013-04-26 17:33:00,52.0,24.0,30.35,SW,216,7.0,-999.0,33,-99.99,,,-99.99,,2013-04-26 21:33:00,
2013-04-26 17:42:00,52.0,24.0,30.35,SW,216,7.0,-999.0,33,-99.99,,,-99.99,,2013-04-26 21:42:00,
2013-04-26 17:53:00,53.0,25.0,30.35,WSW,244,7.0,-999.0,33,-99.99,,,-99.99,,2013-04-26 21:53:00,
2013-04-26 18:03:00,52.0,24.0,30.35,NNW,330,6.0,-999.0,33,-99.99,,,-99.99,,2013-04-26 22:03:00,
2013-04-26 18:13:00,52.0,24.0,30.35,NNW,330,6.0,-999.0,33,-99.99,,,-99.99,,2013-04-26 22:13:00,
2013-04-26 18:23:00,53.0,25.0,30.35,West,278,6.0,-999.0,33,-99.99,,,-99.99,,2013-04-26 22:23:00,
2013-04-26 18:33:00,53.0,24.0,30.35,WSW,250,6.0,-999.0,32,-99.99,,,-99.99,,2013-04-26 22:33:00,
2013-04-26 18:42:00,53.0,24.0,30.35,WSW,250,6.0,-999.0,32,-99.99,,,-99.99,,2013-04-26 22:42:00,
2013-04-26 18:52:00,52.0,24.0,30.35,West,268,4.0,-999.0,33,-99.99,,,-99.99,,2013-04-26 22:52:00,
2013-04-26 19:02:00,51.0,24.0,30.36,SW,227,6.0,-999.0,34,-99.99,,,-99.99,,2013-04-26 23:02:00,
2013-04-26 19:12:00,51.0,24.0,30.36,SW,227,6.0,-999.0,34,-99.99,,,-99.99,,2013-04-26 23:12:00,
2013-04-26 19:21:00,50.0,24.0,30.37,West,266,5.0,-999.0,36,-99.99,,,-99.99,,2013-04-26 23:21:00,
2013-04-26 19:32:00,50.0,25.0,30.37,WSW,248,4.0,-999.0,37,-99.99,,,-99.99,,2013-04-26 23:32:00,
2013-04-26 19:42:00,50.0,25.0,30.37,WSW,248,4.0,-999.0,37,-99.99,,,-99.99,,2013-04-26 23:42:00,
2013-04-26 19:52:00,49.0,25.0,30.38,WNW,284,5.0,-999.0,39,-99.99,,,-99.99,,2013-04-26 23:52:00,
2013-04-26 20:01:00,48.0,25.0,30.38,WSW,257,5.0,-999.0,40,-99.99,,,-99.99,,2013-04-27 00:01:00,
2013-04-26 20:11:00,48.0,25.0,30.38,WSW,257,5.0,-999.0,40,-99.99,,,-99.99,,2013-04-27 00:11:00,
2013-04-26 20:21:00,47.0,25.0,30.39,WSW,255,6.0,-999.0,41,-99.99,,,-99.99,,2013-04-27 00:21:00,
2013-04-26 20:32:00,46.0,24.0,30.39,WNW,293,5.0,-999.0,42,-99.99,,,-99.99,,2013-04-27 00:32:00,
2013-04-26 20:42:00,46.0,24.0,30.39,WNW,293,5.0,-999.0,42,-99.99,,,-99.99,,2013-04-27 00:42:00,
2013-04-26 20:51:00,46.0,25.0,30.39,WNW,284,5.0,-999.0,43,-99.99,,,-99.99,,2013-04-27 00:51:00,
2013-04-26 21:01:00,45.0,24.0,30.39,West,276,2.0,-999.0,43,-99.99,,,-99.99,,2013-04-27 01:01:00,
2013-04-26 21:12:00,45.0,24.0,30.39,West,276,2.0,-999.0,43,-99.99,,,-99.99,,2013-04-27 01:12:00,
2013-04-26 21:21:00,45.0,24.0,30.39,West,259,4.0,-999.0,44,-99.99,,,-99.99,,2013-04-27 01:21:00,
2013-04-26 21:32:00,44.0,23.0,30.39,WSW,249,7.0,-999.0,44,-99.99,,,-99.99,,2013-04-27 01:32:00,
2013-04-26 21:42:00,44.0,23.0,30.39,WSW,249,7.0,-999.0,44,-99.99,,,-99.99,,2013-04-27 01:42:00,
2013-04-26 21:52:00,44.0,23.0,30.40,NW,313,3.0,-999.0,44,-99.99,,,-99.99,,2013-04-27 01:52:00,
2013-04-26 22:02:00,44.0,23.0,30.40,NW,308,2.0,-999.0,44,-99.99,,,-99.99,,2013-04-27 02:02:00,
2013-04-26 22:11:00,44.0,23.0,30.40,NW,308,2.0,-999.0,44,-99.99,,,-99.99,,2013-04-27 02:11:00,
2013-04-26 22:22:00,45.0,24.0,30.40,NW,304,2.0,-999.0,44,-99.99,,,-99.99,,2013-04-27 02:22:00,
2013-04-26 22:32:00,44.0,24.0,30.40,NE,51,1.0,-999.0,45,-99.99,,,-99.99,,2013-04-27 02:32:00,
2013-04-26 22:42:00,44.0,24.0,30.40,NE,51,1.0,-999.0,45,-99.99,,,-99.99,,2013-04-27 02:42:00,
2013-04-26 22:52:00,43.0,24.0,30.40,NE,55,2.0,-999.0,47,-99.99,,,-99.99,,2013-04-27 02:52:00,
2013-04-26 23:02:00,43.0,25.0,30.39,ENE,75,2.0,-999.0,48,-99.99,,,-99.99,,2013-04-27 03:02:00,
2013-04-26 23:11:00,43.0,25.0,30.39,ENE,75,2.0,-999.0,48,-99.99,,,-99.99,,2013-04-27 03:11:00,
2013-04-26 23:22:00,42.0,24.0,30.39,ENE,75,2.0,-999.0,49,-99.99,,,-99.99,,2013-04-27 03:22:00,
2013-04-26 23:33:00,42.0,25.0,30.39,ENE,74,2.0,-999.0,51,-99.99,,,-99.99,,2013-04-27 03:33:00,
2013-04-26 23:43:00,42.0,25.0,30.39,ENE,74,2.0,-999.0,51,-99.99,,,-99.99,,2013-04-27 03:43:00,
2013-04-26 23:53:00,42.0,25.0,30.38,ENE,75,4.0,-999.0,51,-99.99,,,-99.99,,2013-04-27 03:53:00,